| time (UTC) | temp F | wind direction | speed MPH | gust MPH | rain 1hr in | rain 24hr in | rain mn in | humidity % | barometer mb |
| 20260507191640 | 54 | 298 | 5.0 | 6.0 | 0.00 | 0.00 | 0.00 | 44 | 1008.7 |
| 20260507191139 | 55 | 291 | 7.0 | 11.0 | 0.00 | 0.00 | 0.00 | 43 | 1008.9 |
| 20260507190641 | 57 | 359 | 2.0 | 5.0 | 0.00 | 0.00 | 0.00 | 44 | 1009.1 |
| 20260507185639 | 56 | 277 | 3.0 | 6.0 | 0.00 | 0.00 | 0.00 | 44 | 1009.1 |
| 20260507185138 | 56 | 341 | 4.0 | 8.0 | 0.00 | 0.00 | 0.00 | 46 | 1009.1 |
| 20260507184639 | 55 | 343 | 5.0 | 8.0 | 0.00 | 0.00 | 0.00 | 42 | 1009.1 |
| 20260507184138 | 55 | 320 | 4.0 | 6.0 | 0.00 | 0.00 | 0.00 | 43 | 1009.1 |
| 20260507183637 | 56 | 332 | 5.0 | 8.0 | 0.00 | 0.00 | 0.00 | 42 | 1009.3 |
| 20260507183137 | 56 | 325 | 5.0 | 13.0 | 0.00 | 0.00 | 0.00 | 44 | 1009.4 |
| 20260507182638 | 54 | 358 | 5.0 | 8.0 | 0.00 | 0.00 | 0.00 | 46 | 1009.4 |
| 20260507182137 | 54 | 350 | 7.0 | 9.0 | 0.00 | 0.00 | 0.00 | 45 | 1009.3 |
| 20260507181637 | 54 | 348 | 4.0 | 8.0 | 0.00 | 0.00 | 0.00 | 46 | 1009.6 |
| 20260507181135 | 54 | 19 | 5.0 | 7.0 | 0.00 | 0.00 | 0.00 | 44 | 1009.4 |
| 20260507180637 | 55 | 23 | 6.0 | 9.0 | 0.00 | 0.00 | 0.00 | 44 | 1009.6 |
| 20260507180136 | 55 | 9 | 4.0 | 9.0 | 0.00 | 0.00 | 0.00 | 46 | 1009.4 |
| 20260507175635 | 55 | 349 | 6.0 | 14.0 | 0.00 | 0.00 | 0.00 | 45 | 1009.4 |
| 20260507175134 | 55 | 281 | 6.0 | 10.0 | 0.00 | 0.00 | 0.00 | 46 | 1009.4 |
| 20260507174633 | 55 | 312 | 5.0 | 6.0 | 0.00 | 0.00 | 0.00 | 45 | 1009.4 |
| 20260507174134 | 55 | 349 | 7.0 | 10.0 | 0.00 | 0.00 | 0.00 | 45 | 1009.4 |
| 20260507173634 | 55 | 321 | 6.0 | 11.0 | 0.00 | 0.00 | 0.00 | 48 | 1009.4 |
| 20260507173133 | 54 | 297 | 6.0 | 8.0 | 0.00 | 0.00 | 0.00 | 47 | 1009.4 |
| 20260507172632 | 53 | 352 | 5.0 | 7.0 | 0.00 | 0.00 | 0.00 | 48 | 1009.4 |
| 20260507172133 | 53 | 307 | 5.0 | 10.0 | 0.00 | 0.00 | 0.00 | 50 | 1009.4 |
| 20260507171632 | 54 | 351 | 10.0 | 13.0 | 0.00 | 0.00 | 0.00 | 49 | 1009.4 |
| 20260507171132 | 55 | 16 | 5.0 | 8.0 | 0.00 | 0.00 | 0.00 | 48 | 1009.4 |
| 20260507170631 | 53 | 310 | 4.0 | 7.0 | 0.00 | 0.00 | 0.00 | 49 | 1009.4 |
| 20260507170132 | 55 | 311 | 5.0 | 10.0 | 0.00 | 0.00 | 0.00 | 50 | 1009.4 |
| 20260507165631 | 53 | 350 | 3.0 | 5.0 | 0.00 | 0.00 | 0.00 | 48 | 1009.8 |
| 20260507164630 | 54 | 334 | 3.0 | 7.0 | 0.00 | 0.00 | 0.00 | 51 | 1010.1 |
| 20260507164129 | 54 | 331 | 5.0 | 9.0 | 0.00 | 0.00 | 0.00 | 50 | 1009.8 |
| 20260507163129 | 52 | 314 | 5.0 | 8.0 | 0.00 | 0.00 | 0.00 | 52 | 1010.1 |
| 20260507162628 | 51 | 353 | 4.0 | 7.0 | 0.00 | 0.00 | 0.00 | 53 | 1010.1 |
| 20260507162234 | 51 | 348 | 4.0 | 5.0 | 0.00 | 0.00 | 0.00 | 51 | 1010.5 |
| 20260507161632 | 51 | 324 | 5.0 | 10.0 | 0.00 | 0.00 | 0.00 | 53 | 1010.1 |
| 20260507161130 | 52 | 314 | 7.0 | 11.0 | 0.00 | 0.00 | 0.00 | 51 | 1010.1 |
| 20260507160627 | 52 | 325 | 7.0 | 9.0 | 0.00 | 0.00 | 0.00 | 50 | 1010.1 |
| 20260507160126 | 52 | 332 | 5.0 | 8.0 | 0.00 | 0.00 | 0.00 | 50 | 1010.3 |
| 20260507155627 | 52 | 16 | 2.0 | 6.0 | 0.00 | 0.00 | 0.00 | 52 | 1010.5 |
| 20260507155127 | 52 | 348 | 3.0 | 6.0 | 0.00 | 0.00 | 0.00 | 50 | 1010.5 |
| 20260507154626 | 52 | 351 | 8.0 | 10.0 | 0.00 | 0.00 | 0.00 | 50 | 1010.5 |
| 20260507154125 | 52 | 328 | 8.0 | 11.0 | 0.00 | 0.00 | 0.00 | 49 | 1010.5 |
| 20260507153626 | 51 | 10 | 8.0 | 14.0 | 0.00 | 0.00 | 0.00 | 49 | 1010.5 |
| 20260507153125 | 52 | 334 | 4.0 | 7.0 | 0.00 | 0.00 | 0.00 | 48 | 1010.5 |
| 20260507152624 | 51 | 314 | 5.0 | 9.0 | 0.00 | 0.00 | 0.00 | 51 | 1010.9 |
| 20260507152124 | 51 | 295 | 4.0 | 7.0 | 0.00 | 0.00 | 0.00 | 51 | 1010.5 |
| 20260507151625 | 51 | 303 | 5.0 | 9.0 | 0.00 | 0.00 | 0.00 | 48 | 1010.5 |
| 20260507151125 | 52 | 46 | 4.0 | 7.0 | 0.00 | 0.00 | 0.00 | 51 | 1010.5 |
| 20260507150623 | 52 | 346 | 4.0 | 10.0 | 0.00 | 0.00 | 0.00 | 50 | 1010.5 |
| 20260507150123 | 51 | 14 | 6.0 | 11.0 | 0.00 | 0.00 | 0.00 | 51 | 1010.5 |
| 20260507145625 | 50 | 293 | 3.0 | 8.0 | 0.00 | 0.00 | 0.00 | 50 | 1010.5 |
| 20260507145123 | 51 | 341 | 7.0 | 15.0 | 0.00 | 0.00 | 0.00 | 50 | 1010.5 |
| 20260507144622 | 51 | 326 | 5.0 | 6.0 | 0.00 | 0.00 | 0.00 | 52 | 1010.5 |
| 20260507144121 | 51 | 327 | 10.0 | 15.0 | 0.00 | 0.00 | 0.00 | 51 | 1010.7 |
| 20260507143623 | 51 | 354 | 4.0 | 8.0 | 0.00 | 0.00 | 0.00 | 52 | 1010.5 |
| 20260507143222 | 50 | 288 | 4.0 | 6.0 | 0.00 | 0.00 | 0.00 | 54 | 1010.5 |
| 20260507142722 | 50 | 327 | 6.0 | 13.0 | 0.00 | 0.00 | 0.00 | 54 | 1010.5 |
| 20260507142121 | 50 | 1 | 5.0 | 8.0 | 0.00 | 0.00 | 0.00 | 53 | 1010.5 |
| 20260507141622 | 49 | 320 | 9.0 | 14.0 | 0.00 | 0.00 | 0.00 | 54 | 1010.5 |
| 20260507141122 | 50 | 309 | 8.0 | 10.0 | 0.00 | 0.00 | 0.00 | 54 | 1010.5 |
| 20260507140620 | 50 | 297 | 4.0 | 6.0 | 0.00 | 0.00 | 0.00 | 59 | 1010.5 |
| 20260507140119 | 49 | 323 | 8.0 | 13.0 | 0.00 | 0.00 | 0.00 | 56 | 1010.5 |
| 20260507135719 | 49 | 12 | 6.0 | 10.0 | 0.00 | 0.00 | 0.00 | 57 | 1010.1 |
| 20260507135117 | 50 | 11 | 6.0 | 13.0 | 0.00 | 0.00 | 0.00 | 60 | 1010.5 |
| 20260507134619 | 50 | 325 | 7.0 | 13.0 | 0.00 | 0.00 | 0.00 | 62 | 1010.5 |
| 20260507134118 | 49 | 294 | 3.0 | 5.0 | 0.00 | 0.00 | 0.00 | 61 | 1010.1 |
| 20260507133717 | 49 | 349 | 5.0 | 6.0 | 0.00 | 0.00 | 0.00 | 63 | 1010.3 |
| 20260507133118 | 49 | 341 | 2.0 | 3.0 | 0.00 | 0.00 | 0.00 | 63 | 1010.1 |
| 20260507132617 | 49 | 335 | 3.0 | 6.0 | 0.00 | 0.00 | 0.00 | 66 | 1010.1 |
| 20260507132118 | 48 | 326 | 5.0 | 8.0 | 0.00 | 0.00 | 0.00 | 67 | 1010.1 |
| 20260507131617 | 49 | 337 | 2.0 | 3.0 | 0.00 | 0.00 | 0.00 | 71 | 1010.3 |
| 20260507131147 | 48 | 336 | 4.0 | 5.0 | 0.00 | 0.00 | 0.00 | 72 | 1010.1 |
| 20260507130646 | 49 | 317 | 4.0 | 6.0 | 0.00 | 0.00 | 0.00 | 74 | 1010.1 |
| 20260507130145 | 49 | 17 | 7.0 | 10.0 | 0.00 | 0.00 | 0.00 | 76 | 1010.1 |
| 20260507125646 | 49 | 331 | 3.0 | 3.0 | 0.00 | 0.00 | 0.00 | 76 | 1010.1 |
| 20260507124645 | 48 | 358 | 2.0 | 5.0 | 0.00 | 0.00 | 0.00 | 79 | 1010.1 |
| 20260507124144 | 48 | 306 | 2.0 | 3.0 | 0.00 | 0.00 | 0.00 | 81 | 1010.1 |
| 20260507123643 | 47 | 312 | 4.0 | 6.0 | 0.00 | 0.00 | 0.00 | 81 | 1010.1 |
| 20260507123145 | 47 | 354 | 3.0 | 5.0 | 0.00 | 0.00 | 0.00 | 88 | 1010.1 |
| 20260507122644 | 46 | 350 | 1.0 | 2.0 | 0.00 | 0.00 | 0.00 | 90 | 1010.0 |
| 20260507122142 | 44 | 340 | 3.0 | 7.0 | 0.00 | 0.00 | 0.00 | 91 | 1010.1 |
| 20260507121642 | 45 | 310 | 3.0 | 7.0 | 0.00 | 0.00 | 0.00 | 93 | 1010.0 |
| 20260507121142 | 45 | 323 | 1.0 | 2.0 | 0.00 | 0.00 | 0.00 | 94 | 1009.8 |
| 20260507120642 | 45 | 303 | 2.0 | 5.0 | 0.00 | 0.00 | 0.00 | 94 | 1009.8 |
| 20260507115641 | 45 | 343 | 2.0 | 3.0 | 0.00 | 0.00 | 0.00 | 96 | 1009.8 |
| 20260507115243 | 45 | 0.0 | 0.0 | 0.00 | 0.00 | 0.00 | 96 | 1009.8 | |
| 20260507114644 | 45 | 0.0 | 0.0 | 0.00 | 0.00 | 0.00 | 96 | 1009.8 | |
| 20260507114141 | 45 | 344 | 1.0 | 1.0 | 0.00 | 0.00 | 0.00 | 94 | 1009.8 |
| 20260507113639 | 45 | 338 | 1.0 | 2.0 | 0.00 | 0.00 | 0.00 | 95 | 1009.8 |
| 20260507112639 | 45 | 331 | 1.0 | 2.0 | 0.00 | 0.00 | 0.00 | 94 | 1009.8 |
| 20260507112138 | 45 | 330 | 1.0 | 2.0 | 0.00 | 0.00 | 0.00 | 93 | 1009.8 |
| 20260507111638 | 45 | 331 | 0.0 | 1.0 | 0.00 | 0.00 | 0.00 | 93 | 1009.8 |
| 20260507111136 | 45 | 338 | 2.0 | 2.0 | 0.00 | 0.00 | 0.00 | 93 | 1009.8 |
| 20260507110638 | 45 | 336 | 1.0 | 2.0 | 0.00 | 0.00 | 0.00 | 92 | 1009.8 |
| 20260507110137 | 45 | 327 | 3.0 | 5.0 | 0.00 | 0.00 | 0.00 | 92 | 1009.8 |
| 20260507105636 | 45 | 303 | 3.0 | 6.0 | 0.00 | 0.00 | 0.00 | 95 | 1009.8 |
| 20260507105135 | 44 | 330 | 4.0 | 6.0 | 0.00 | 0.00 | 0.00 | 96 | 1009.3 |
| 20260507104637 | 43 | 336 | 3.0 | 3.0 | 0.00 | 0.00 | 0.00 | 99 | 1009.1 |
| 20260507104137 | 43 | 360 | 1.0 | 3.0 | 0.00 | 0.00 | 0.00 | 99 | 1009.1 |
| 20260507103637 | 42 | 348 | 6.0 | 9.0 | 0.00 | 0.00 | 0.00 | 99 | 1009.1 |
| 20260507103134 | 42 | 334 | 3.0 | 6.0 | 0.00 | 0.00 | 0.00 | 99 | 1009.1 |
| 20260507102639 | 41 | 15 | 5.0 | 9.0 | 0.00 | 0.00 | 0.00 | 99 | 1009.1 |
| 20260507102135 | 41 | 338 | 1.0 | 1.0 | 0.00 | 0.00 | 0.00 | 99 | 1008.9 |
| 20260507101634 | 41 | 350 | 2.0 | 3.0 | 0.00 | 0.00 | 0.00 | 99 | 1008.7 |
| 20260507101133 | 41 | 351 | 3.0 | 5.0 | 0.00 | 0.00 | 0.00 | 99 | 1009.1 |
| 20260507100632 | 41 | 347 | 2.0 | 2.0 | 0.00 | 0.00 | 0.00 | 99 | 1008.9 |
| 20260507100133 | 41 | 346 | 1.0 | 2.0 | 0.00 | 0.00 | 0.00 | 99 | 1009.1 |
| 20260507095633 | 41 | 341 | 1.0 | 1.0 | 0.00 | 0.00 | 0.00 | 99 | 1009.1 |
| 20260507095132 | 41 | 337 | 0.0 | 1.0 | 0.00 | 0.00 | 0.00 | 99 | 1009.1 |
| 20260507094631 | 41 | 336 | 0.0 | 1.0 | 0.00 | 0.00 | 0.00 | 99 | 1009.1 |
| 20260507094132 | 41 | 339 | 1.0 | 1.0 | 0.00 | 0.00 | 0.00 | 99 | 1009.4 |
| 20260507093633 | 41 | 336 | 0.0 | 1.0 | 0.00 | 0.00 | 0.00 | 99 | 1009.4 |
| 20260507093131 | 41 | 343 | 3.0 | 6.0 | 0.00 | 0.00 | 0.00 | 99 | 1009.1 |
| 20260507092630 | 41 | 348 | 2.0 | 2.0 | 0.00 | 0.00 | 0.00 | 99 | 1009.4 |
| 20260507092129 | 41 | 336 | 1.0 | 2.0 | 0.00 | 0.00 | 0.00 | 99 | 1009.3 |
| 20260507091630 | 41 | 0.0 | 0.0 | 0.00 | 0.00 | 0.00 | 99 | 1009.1 | |
| 20260507091129 | 41 | 345 | 2.0 | 2.0 | 0.00 | 0.00 | 0.00 | 99 | 1009.4 |
| 20260507090628 | 41 | 349 | 1.0 | 1.0 | 0.00 | 0.00 | 0.00 | 99 | 1009.4 |
| 20260507085629 | 42 | 356 | 1.0 | 2.0 | 0.00 | 0.00 | 0.00 | 99 | 1009.4 |
| 20260507085130 | 41 | 325 | 3.0 | 3.0 | 0.00 | 0.00 | 0.00 | 99 | 1009.8 |
| 20260507084628 | 42 | 352 | 2.0 | 2.0 | 0.00 | 0.00 | 0.00 | 99 | 1009.8 |
| 20260507084126 | 41 | 338 | 1.0 | 2.0 | 0.00 | 0.00 | 0.00 | 99 | 1009.8 |
| 20260507083628 | 41 | 327 | 1.0 | 1.0 | 0.00 | 0.00 | 0.00 | 99 | 1009.8 |
| 20260507083127 | 41 | 0.0 | 0.0 | 0.00 | 0.00 | 0.00 | 99 | 1009.4 | |
| 20260507082626 | 41 | 350 | 0.0 | 1.0 | 0.00 | 0.00 | 0.00 | 99 | 1009.1 |
| 20260507082226 | 42 | 0.0 | 0.0 | 0.00 | 0.00 | 0.00 | 99 | 1009.1 | |
| 20260507081626 | 42 | 352 | 1.0 | 2.0 | 0.00 | 0.00 | 0.00 | 99 | 1009.1 |
| 20260507081126 | 42 | 348 | 1.0 | 1.0 | 0.00 | 0.00 | 0.00 | 99 | 1009.4 |
| 20260507080624 | 42 | 341 | 1.0 | 1.0 | 0.00 | 0.00 | 0.00 | 99 | 1009.4 |
| 20260507080126 | 42 | 341 | 1.0 | 1.0 | 0.00 | 0.00 | 0.00 | 99 | 1009.3 |
| 20260507075127 | 42 | 340 | 1.0 | 1.0 | 0.00 | 0.00 | 0.00 | 99 | 1009.4 |
| 20260507074723 | 42 | 332 | 1.0 | 1.0 | 0.00 | 0.00 | 0.00 | 99 | 1009.4 |
| 20260507074124 | 42 | 329 | 1.0 | 2.0 | 0.00 | 0.00 | 0.00 | 99 | 1009.4 |
| 20260507073624 | 42 | 343 | 1.0 | 1.0 | 0.00 | 0.00 | 0.00 | 99 | 1009.4 |
| 20260507063119 | 42 | 343 | 2.0 | 2.0 | 0.00 | 0.00 | 0.00 | 99 | 1008.7 |
| 20260507062658 | 42 | 335 | 2.0 | 2.0 | 0.00 | 0.00 | 0.00 | 99 | 1008.7 |
| 20260507052147 | 43 | 0.0 | 0.0 | 0.00 | 0.00 | 0.00 | 99 | 1009.8 | |
| 20260507051645 | 43 | 352 | 1.0 | 1.0 | 0.00 | 0.00 | 0.00 | 99 | 1009.8 |
| 20260507051142 | 43 | 342 | 0.0 | 1.0 | 0.00 | 0.00 | 0.00 | 99 | 1009.8 |
| 20260507050643 | 43 | 0.0 | 0.0 | 0.00 | 0.00 | 0.00 | 99 | 1009.8 | |
| 20260507050142 | 43 | 0.0 | 0.0 | 0.00 | 0.00 | 0.00 | 99 | 1009.6 | |
| 20260507045641 | 43 | 343 | 0.0 | 1.0 | 0.00 | 0.00 | 0.00 | 99 | 1009.4 |
| 20260507045141 | 43 | 344 | 0.0 | 1.0 | 0.00 | 0.00 | 0.00 | 99 | 1009.8 |
| 20260507044642 | 43 | 0.0 | 0.0 | 0.00 | 0.00 | 0.00 | 99 | 1009.8 | |
| 20260507044141 | 43 | 0.0 | 0.0 | 0.00 | 0.00 | 0.00 | 99 | 1009.1 | |
| 20260507043640 | 43 | 341 | 0.0 | 1.0 | 0.00 | 0.00 | 0.00 | 99 | 1009.4 |
| 20260507043140 | 43 | 0.0 | 0.0 | 0.00 | 0.00 | 0.00 | 99 | 1009.4 | |
| 20260507042641 | 43 | 334 | 1.0 | 1.0 | 0.00 | 0.00 | 0.00 | 99 | 1009.3 |
| 20260507041140 | 43 | 0.0 | 0.0 | 0.00 | 0.00 | 0.00 | 99 | 1009.6 | |
| 20260507040638 | 44 | 150 | 2.0 | 5.0 | 0.00 | 0.00 | 0.00 | 99 | 1009.4 |
| 20260507040140 | 44 | 341 | 0.0 | 1.0 | 0.00 | 0.00 | 0.00 | 99 | 1009.8 |
| 20260507035638 | 44 | 0.0 | 0.0 | 0.00 | 0.00 | 0.70 | 99 | 1009.6 | |
| 20260507035137 | 44 | 338 | 1.0 | 2.0 | 0.00 | 0.00 | 0.70 | 99 | 1009.4 |
| 20260507034636 | 44 | 338 | 2.0 | 2.0 | 0.00 | 0.00 | 0.70 | 99 | 1009.4 |
| 20260507034138 | 44 | 311 | 4.0 | 6.0 | 0.00 | 0.00 | 0.70 | 99 | 1009.8 |
| 20260507033637 | 44 | 343 | 2.0 | 2.0 | 0.00 | 0.00 | 0.70 | 99 | 1009.8 |
| 20260507033136 | 44 | 348 | 1.0 | 2.0 | 0.00 | 0.00 | 0.70 | 99 | 1009.4 |
| 20260507032635 | 44 | 327 | 1.0 | 1.0 | 0.00 | 0.00 | 0.70 | 99 | 1009.6 |
| 20260507032136 | 44 | 336 | 1.0 | 3.0 | 0.00 | 0.00 | 0.70 | 99 | 1009.4 |
| 20260507031635 | 44 | 318 | 1.0 | 2.0 | 0.00 | 0.00 | 0.70 | 99 | 1009.4 |
| 20260507031136 | 44 | 348 | 2.0 | 3.0 | 0.00 | 0.00 | 0.70 | 99 | 1009.6 |
| 20260507030635 | 45 | 336 | 1.0 | 2.0 | 0.00 | 0.00 | 0.70 | 99 | 1009.4 |
| 20260507030134 | 45 | 333 | 1.0 | 2.0 | 0.00 | 0.00 | 0.70 | 99 | 1009.8 |
| 20260507025633 | 45 | 341 | 1.0 | 2.0 | 0.00 | 0.00 | 0.70 | 99 | 1009.8 |
| 20260507025132 | 45 | 332 | 3.0 | 6.0 | 0.00 | 0.00 | 0.70 | 99 | 1009.6 |
| 20260507024634 | 45 | 315 | 2.0 | 3.0 | 0.00 | 0.00 | 0.70 | 99 | 1009.4 |
| 20260507024133 | 45 | 338 | 2.0 | 3.0 | 0.00 | 0.00 | 0.70 | 99 | 1009.4 |
| 20260507023632 | 45 | 334 | 3.0 | 5.0 | 0.00 | 0.00 | 0.70 | 99 | 1009.4 |
| 20260507023131 | 45 | 340 | 1.0 | 1.0 | 0.00 | 0.00 | 0.70 | 99 | 1009.6 |
| 20260507022632 | 46 | 323 | 1.0 | 2.0 | 0.00 | 0.00 | 0.70 | 99 | 1009.4 |
| 20260507022132 | 46 | 334 | 2.0 | 5.0 | 0.00 | 0.00 | 0.69 | 99 | 1009.4 |
| 20260507021631 | 46 | 333 | 1.0 | 1.0 | 0.00 | 0.00 | 0.69 | 99 | 1009.8 |
| 20260507021233 | 46 | 311 | 3.0 | 3.0 | 0.00 | 0.00 | 0.69 | 99 | 1009.4 |
| 20260507020631 | 46 | 357 | 4.0 | 8.0 | 0.00 | 0.00 | 0.69 | 99 | 1009.4 |
| 20260507020131 | 46 | 341 | 5.0 | 6.0 | 0.00 | 0.00 | 0.69 | 99 | 1009.8 |
| 20260507015630 | 46 | 333 | 1.0 | 1.0 | 0.00 | 0.00 | 0.68 | 99 | 1009.4 |
| 20260507015129 | 47 | 329 | 2.0 | 3.0 | 0.00 | 0.00 | 0.68 | 99 | 1009.4 |
| 20260507014632 | 47 | 337 | 2.0 | 3.0 | 0.00 | 0.00 | 0.68 | 99 | 1009.4 |
| 20260507014130 | 47 | 2 | 2.0 | 3.0 | 0.00 | 0.00 | 0.67 | 99 | 1009.4 |
| 20260507013629 | 47 | 330 | 2.0 | 5.0 | 0.00 | 0.00 | 0.66 | 99 | 1009.1 |
| 20260507013128 | 48 | 322 | 2.0 | 2.0 | 0.00 | 0.00 | 0.66 | 99 | 1009.1 |
| 20260507012627 | 48 | 332 | 3.0 | 5.0 | 0.00 | 0.00 | 0.66 | 99 | 1009.4 |
| 20260507012128 | 48 | 330 | 2.0 | 3.0 | 0.00 | 0.00 | 0.66 | 99 | 1009.3 |
| 20260507011628 | 48 | 326 | 2.0 | 3.0 | 0.00 | 0.00 | 0.66 | 99 | 1009.1 |
| 20260507010629 | 50 | 341 | 0.0 | 2.0 | 0.00 | 0.00 | 0.66 | 99 | 1008.7 |
| 20260507010227 | 50 | 337 | 2.0 | 3.0 | 0.00 | 0.00 | 0.66 | 99 | 1008.4 |
| 20260507005626 | 50 | 345 | 2.0 | 3.0 | 0.00 | 0.00 | 0.66 | 99 | 1008.4 |
| 20260507005128 | 51 | 338 | 3.0 | 5.0 | 0.00 | 0.00 | 0.66 | 99 | 1008.2 |
| 20260507004728 | 51 | 4 | 3.0 | 5.0 | 0.00 | 0.00 | 0.66 | 99 | 1008.2 |
| 20260507004126 | 51 | 345 | 3.0 | 5.0 | 0.00 | 0.00 | 0.66 | 99 | 1008.0 |
| 20260507003625 | 52 | 335 | 3.0 | 3.0 | 0.00 | 0.00 | 0.66 | 99 | 1007.7 |
| 20260507003124 | 53 | 353 | 3.0 | 5.0 | 0.00 | 0.00 | 0.66 | 99 | 1007.7 |
| 20260507002624 | 53 | 4 | 2.0 | 5.0 | 0.00 | 0.00 | 0.66 | 99 | 1007.7 |
| 20260507002124 | 54 | 336 | 2.0 | 2.0 | 0.00 | 0.00 | 0.66 | 99 | 1007.7 |
| 20260507001623 | 54 | 337 | 1.0 | 1.0 | 0.00 | 0.00 | 0.66 | 99 | 1007.7 |
| 20260507001122 | 54 | 347 | 2.0 | 2.0 | 0.00 | 0.00 | 0.66 | 99 | 1007.3 |
| 20260507000622 | 54 | 338 | 1.0 | 1.0 | 0.00 | 0.00 | 0.66 | 99 | 1007.3 |
| 20260507000123 | 54 | 330 | 2.0 | 3.0 | 0.00 | 0.00 | 0.66 | 99 | 1007.3 |
| 20260506235121 | 54 | 313 | 3.0 | 3.0 | 0.00 | 0.00 | 0.66 | 99 | 1007.0 |
| 20260506234622 | 56 | 347 | 4.0 | 7.0 | 0.00 | 0.00 | 0.66 | 99 | 1007.0 |
| 20260506234121 | 56 | 327 | 1.0 | 3.0 | 0.00 | 0.00 | 0.66 | 99 | 1007.0 |
| 20260506233620 | 56 | 347 | 2.0 | 3.0 | 0.00 | 0.00 | 0.65 | 99 | 1007.0 |
| 20260506233120 | 56 | 329 | 1.0 | 1.0 | 0.00 | 0.00 | 0.62 | 99 | 1006.6 |
| 20260506232621 | 56 | 334 | 0.0 | 1.0 | 0.00 | 0.00 | 0.62 | 99 | 1006.6 |
| 20260506232120 | 56 | 315 | 0.0 | 1.0 | 0.00 | 0.00 | 0.61 | 99 | 1006.6 |
| 20260506231619 | 56 | 348 | 1.0 | 1.0 | 0.00 | 0.00 | 0.60 | 99 | 1006.3 |
| 20260506231118 | 56 | 0.0 | 0.0 | 0.00 | 0.00 | 0.58 | 99 | 1006.3 | |
| 20260506230618 | 56 | 281 | 3.0 | 3.0 | 0.00 | 0.00 | 0.58 | 99 | 1006.6 |
| 20260506230119 | 56 | 112 | 5.0 | 6.0 | 0.00 | 0.00 | 0.55 | 99 | 1006.3 |
| 20260506225618 | 56 | 211 | 4.0 | 6.0 | 0.00 | 0.00 | 0.51 | 99 | 1006.3 |
| 20260506225118 | 56 | 218 | 3.0 | 5.0 | 0.00 | 0.00 | 0.50 | 99 | 1006.3 |
| 20260506224616 | 56 | 99 | 3.0 | 6.0 | 0.00 | 0.00 | 0.49 | 99 | 1006.3 |
| 20260506224119 | 56 | 323 | 2.0 | 2.0 | 0.00 | 0.00 | 0.48 | 99 | 1006.3 |
| 20260506223618 | 56 | 52 | 2.0 | 3.0 | 0.00 | 0.00 | 0.47 | 99 | 1006.3 |
| 20260506223146 | 56 | 171 | 4.0 | 6.0 | 0.00 | 0.00 | 0.47 | 99 | 1006.3 |
| 20260506222645 | 57 | 46 | 3.0 | 5.0 | 0.00 | 0.00 | 0.47 | 99 | 1006.3 |
| 20260506222147 | 56 | 101 | 3.0 | 5.0 | 0.00 | 0.00 | 0.47 | 99 | 1006.3 |
| 20260506221646 | 56 | 316 | 2.0 | 3.0 | 0.00 | 0.00 | 0.47 | 99 | 1006.3 |
| 20260506221145 | 56 | 181 | 3.0 | 5.0 | 0.00 | 0.00 | 0.47 | 99 | 1006.3 |
| 20260506220644 | 56 | 201 | 4.0 | 6.0 | 0.00 | 0.00 | 0.46 | 99 | 1006.5 |
| 20260506220143 | 56 | 4 | 3.0 | 5.0 | 0.00 | 0.00 | 0.46 | 99 | 1006.6 |
| 20260506215644 | 57 | 195 | 4.0 | 7.0 | 0.00 | 0.00 | 0.46 | 99 | 1006.6 |
| 20260506215143 | 57 | 175 | 8.0 | 10.0 | 0.00 | 0.00 | 0.46 | 99 | 1006.5 |
| 20260506214643 | 57 | 49 | 3.0 | 5.0 | 0.00 | 0.00 | 0.46 | 99 | 1006.3 |
| 20260506214142 | 57 | 166 | 6.0 | 7.0 | 0.00 | 0.00 | 0.46 | 99 | 1006.3 |
| 20260506213643 | 57 | 119 | 4.0 | 6.0 | 0.00 | 0.00 | 0.45 | 99 | 1006.3 |
| 20260506213142 | 57 | 7 | 2.0 | 3.0 | 0.00 | 0.00 | 0.45 | 99 | 1006.3 |
| 20260506212646 | 57 | 88 | 3.0 | 6.0 | 0.00 | 0.00 | 0.45 | 99 | 1006.3 |
| 20260506212141 | 57 | 140 | 3.0 | 3.0 | 0.00 | 0.00 | 0.45 | 99 | 1006.3 |
| 20260506211640 | 57 | 138 | 5.0 | 7.0 | 0.00 | 0.00 | 0.44 | 99 | 1006.5 |
| 20260506211141 | 57 | 173 | 6.0 | 10.0 | 0.00 | 0.00 | 0.44 | 99 | 1006.3 |
| 20260506210641 | 57 | 143 | 7.0 | 8.0 | 0.00 | 0.00 | 0.43 | 99 | 1006.3 |
| 20260506210139 | 57 | 155 | 6.0 | 9.0 | 0.00 | 0.00 | 0.43 | 99 | 1006.3 |
| 20260506205641 | 57 | 158 | 3.0 | 5.0 | 0.00 | 0.00 | 0.43 | 99 | 1006.3 |
| 20260506204639 | 57 | 170 | 7.0 | 8.0 | 0.00 | 0.00 | 0.43 | 99 | 1006.3 |
| 20260506204138 | 57 | 155 | 4.0 | 9.0 | 0.00 | 0.00 | 0.42 | 99 | 1006.3 |
| 20260506203639 | 57 | 106 | 6.0 | 10.0 | 0.00 | 0.00 | 0.42 | 99 | 1006.3 |
| 20260506202639 | 57 | 277 | 2.0 | 3.0 | 0.00 | 0.00 | 0.41 | 99 | 1006.3 |
| 20260506202137 | 57 | 178 | 7.0 | 11.0 | 0.00 | 0.00 | 0.41 | 99 | 1006.6 |
| 20260506201637 | 57 | 261 | 3.0 | 6.0 | 0.00 | 0.00 | 0.41 | 99 | 1006.6 |
| 20260506201138 | 58 | 80 | 5.0 | 6.0 | 0.00 | 0.00 | 0.41 | 99 | 1006.5 |
| 20260506200637 | 58 | 151 | 6.0 | 9.0 | 0.00 | 0.00 | 0.41 | 99 | 1006.6 |
| 20260506195737 | 58 | 188 | 7.0 | 10.0 | 0.00 | 0.00 | 0.40 | 99 | 1006.8 |
| 20260506195135 | 58 | 158 | 5.0 | 8.0 | 0.00 | 0.00 | 0.40 | 99 | 1006.6 |
| 20260506194635 | 58 | 159 | 6.0 | 9.0 | 0.00 | 0.00 | 0.40 | 99 | 1007.0 |
| 20260506194134 | 58 | 165 | 7.0 | 9.0 | 0.00 | 0.00 | 0.40 | 99 | 1006.8 |
| 20260506193637 | 58 | 142 | 6.0 | 8.0 | 0.00 | 0.00 | 0.39 | 99 | 1007.0 |
| 20260506193139 | 58 | 243 | 6.0 | 9.0 | 0.00 | 0.00 | 0.39 | 99 | 1007.0 |
| 20260506192634 | 58 | 121 | 5.0 | 8.0 | 0.00 | 0.00 | 0.39 | 99 | 1006.8 |
| 20260506192133 | 58 | 166 | 6.0 | 9.0 | 0.00 | 0.00 | 0.39 | 99 | 1007.0 |